| time (UTC) | temp F | wind direction | speed MPH | gust MPH | rain 1hr in | rain 24hr in | rain mn in | humidity % | barometer mb |
| 20260901061530 | 63 | 155 | 1.0 | 3.0 | 0.00 | 0.00 | 0.00 | 45 | 1006.4 |
| 20260901060032 | 64 | 157 | 1.0 | 3.0 | 0.00 | 0.00 | 0.00 | 44 | 1006.4 |
| 20260901054531 | 64 | 30 | 0.0 | 3.0 | 0.00 | 0.00 | 0.00 | 43 | 1006.4 |
| 20260901053031 | 65 | 64 | 1.0 | 3.0 | 0.00 | 0.00 | 0.00 | 41 | 1006.4 |
| 20260901044530 | 67 | 170 | 2.0 | 3.0 | 0.00 | 0.00 | 0.00 | 40 | 1006.2 |
| 20260901043029 | 68 | 151 | 2.0 | 4.0 | 0.00 | 0.00 | 0.00 | 41 | 1006.1 |
| 20260901040030 | 67 | 23 | 2.0 | 4.0 | 0.00 | 0.00 | 0.00 | 42 | 1005.8 |
| 20260901034532 | 67 | 354 | 4.0 | 5.0 | 0.00 | 0.00 | 0.00 | 41 | 1005.6 |
| 20260901033033 | 69 | 4 | 3.0 | 6.0 | 0.00 | 0.00 | 0.00 | 37 | 1005.3 |
| 20260901031531 | 71 | 134 | 1.0 | 3.0 | 0.00 | 0.00 | 0.00 | 35 | 1005.2 |
| 20260901030029 | 73 | 176 | 2.0 | 4.0 | 0.00 | 0.00 | 0.00 | 33 | 1005.0 |
| 20260901024532 | 74 | 120 | 0.0 | 3.0 | 0.00 | 0.00 | 0.00 | 31 | 1004.9 |
| 20260901023030 | 75 | 112 | 1.0 | 3.0 | 0.00 | 0.00 | 0.00 | 30 | 1004.7 |
| 20260901021529 | 76 | 111 | 1.0 | 3.0 | 0.00 | 0.00 | 0.00 | 31 | 1004.7 |
| 20260901020116 | 76 | 95 | 1.0 | 4.0 | 0.00 | 0.00 | 0.00 | 32 | 1004.8 |
| 20260901014607 | 77 | 341 | 1.0 | 3.0 | 0.00 | 0.00 | 0.00 | 32 | 1004.7 |
| 20260901013029 | 81 | 273 | 3.0 | 4.0 | 0.00 | 0.00 | 0.00 | 32 | 1004.8 |
| 20260901011529 | 83 | 207 | 2.0 | 4.0 | 0.00 | 0.00 | 0.00 | 26 | 1004.8 |
| 20260901010031 | 84 | 51 | 2.0 | 7.0 | 0.00 | 0.00 | 0.00 | 23 | 1004.9 |
| 20260901003108 | 84 | 34 | 5.0 | 10.0 | 0.00 | 0.00 | 0.00 | 24 | 1005.1 |
| 20260901001528 | 84 | 39 | 4.0 | 8.0 | 0.00 | 0.00 | 0.00 | 25 | 1005.3 |
| 20260901000111 | 84 | 37 | 7.0 | 12.0 | 0.00 | 0.00 | 0.00 | 25 | 1005.4 |
| 20260831234530 | 85 | 33 | 7.0 | 12.0 | 0.00 | 0.00 | 0.00 | 25 | 1005.5 |
| 20260831233032 | 86 | 39 | 7.0 | 12.0 | 0.00 | 0.00 | 0.00 | 24 | 1005.6 |
| 20260831231534 | 87 | 43 | 6.0 | 14.0 | 0.00 | 0.00 | 0.00 | 24 | 1005.9 |
| 20260831224533 | 87 | 42 | 4.0 | 13.0 | 0.00 | 0.00 | 0.00 | 25 | 1006.4 |
| 20260831223033 | 87 | 44 | 5.0 | 13.0 | 0.00 | 0.00 | 0.00 | 25 | 1006.5 |
| 20260831221532 | 86 | 37 | 6.0 | 13.0 | 0.00 | 0.00 | 0.00 | 26 | 1006.7 |
| 20260831214605 | 87 | 31 | 4.0 | 16.0 | 0.00 | 0.00 | 0.00 | 28 | 1007.2 |
| 20260831213105 | 86 | 35 | 3.0 | 11.0 | 0.00 | 0.00 | 0.00 | 30 | 1007.4 |
| 20260831211532 | 85 | 41 | 4.0 | 9.0 | 0.00 | 0.00 | 0.00 | 31 | 1007.6 |
| 20260831210029 | 83 | 38 | 6.0 | 17.0 | 0.00 | 0.00 | 0.00 | 31 | 1007.9 |
| 20260831204530 | 84 | 40 | 9.0 | 22.0 | 0.00 | 0.00 | 0.00 | 31 | 1008.0 |
| 20260831203106 | 82 | 46 | 6.0 | 16.0 | 0.00 | 0.00 | 0.00 | 32 | 1008.3 |
| 20260831201607 | 81 | 47 | 8.0 | 16.0 | 0.00 | 0.00 | 0.00 | 32 | 1008.5 |
| 20260831200030 | 81 | 41 | 11.0 | 23.0 | 0.00 | 0.00 | 0.00 | 32 | 1008.8 |
| 20260831194606 | 80 | 49 | 8.0 | 20.0 | 0.00 | 0.00 | 0.00 | 33 | 1009.1 |
| 20260831191531 | 78 | 31 | 11.0 | 20.0 | 0.00 | 0.00 | 0.00 | 34 | 1009.6 |
| 20260831190030 | 78 | 30 | 11.0 | 25.0 | 0.00 | 0.00 | 0.00 | 36 | 1009.8 |
| 20260831181647 | 75 | 11 | 3.0 | 12.0 | 0.00 | 0.00 | 0.00 | 49 | 1010.8 |
| 20260831180043 | 73 | 282 | 2.0 | 6.0 | 0.00 | 0.00 | 0.00 | 56 | 1011.1 |
| 20260831173031 | 69 | 286 | 2.0 | 4.0 | 0.00 | 0.00 | 0.00 | 59 | 1011.5 |
| 20260831171533 | 68 | 267 | 1.0 | 3.0 | 0.00 | 0.00 | 0.00 | 60 | 1011.7 |
| 20260831164530 | 65 | 270 | 1.0 | 3.0 | 0.00 | 0.00 | 0.00 | 65 | 1012.1 |
| 20260831163030 | 63 | 305 | 1.0 | 3.0 | 0.00 | 0.00 | 0.00 | 69 | 1012.2 |
| 20260831161608 | 61 | 292 | 1.0 | 3.0 | 0.00 | 0.00 | 0.00 | 73 | 1012.5 |
| 20260831154532 | 59 | 96 | 0.0 | 1.0 | 0.00 | 0.00 | 0.00 | 77 | 1012.5 |
| 20260831153031 | 57 | 90 | 0.0 | 2.0 | 0.00 | 0.00 | 0.00 | 81 | 1012.6 |
| 20260831151530 | 55 | 90 | 0.0 | 1.0 | 0.00 | 0.00 | 0.00 | 85 | 1012.6 |
| 20260831150030 | 52 | 90 | 0.0 | 1.0 | 0.00 | 0.00 | 0.00 | 88 | 1012.5 |
| 20260831144531 | 48 | 90 | 0.0 | 2.0 | 0.00 | 0.00 | 0.00 | 89 | 1012.3 |
| 20260831143028 | 47 | 90 | 1.0 | 2.0 | 0.00 | 0.00 | 0.00 | 90 | 1012.3 |
| 20260831141532 | 47 | 90 | 0.0 | 2.0 | 0.00 | 0.00 | 0.00 | 89 | 1012.2 |
| 20260831140032 | 47 | 90 | 0.0 | 0.0 | 0.00 | 0.00 | 0.00 | 88 | 1012.1 |
| 20260831134532 | 47 | 90 | 0.0 | 2.0 | 0.00 | 0.00 | 0.00 | 88 | 1012.1 |
| 20260831124530 | 48 | 202 | 0.0 | 0.0 | 0.00 | 0.00 | 0.00 | 85 | 1012.1 |
| 20260831123031 | 49 | 170 | 0.0 | 0.0 | 0.00 | 0.00 | 0.00 | 84 | 1012.0 |
| 20260831121530 | 50 | 157 | 0.0 | 1.0 | 0.00 | 0.00 | 0.00 | 84 | 1012.0 |
| 20260831120028 | 50 | 130 | 1.0 | 3.0 | 0.00 | 0.00 | 0.00 | 83 | 1012.1 |
| 20260831114531 | 50 | 151 | 1.0 | 2.0 | 0.00 | 0.00 | 0.00 | 83 | 1012.1 |
| 20260831110031 | 50 | 180 | 1.0 | 2.0 | 0.00 | 0.00 | 0.00 | 83 | 1012.2 |
| 20260831104530 | 50 | 180 | 0.0 | 1.0 | 0.00 | 0.00 | 0.00 | 82 | 1012.3 |
| 20260831103029 | 51 | 173 | 1.0 | 3.0 | 0.00 | 0.00 | 0.00 | 80 | 1012.3 |
| 20260831101529 | 52 | 22 | 1.0 | 3.0 | 0.00 | 0.00 | 0.00 | 80 | 1012.2 |
| 20260831100028 | 52 | 22 | 1.0 | 2.0 | 0.00 | 0.00 | 0.00 | 80 | 1012.3 |
| 20260831094531 | 52 | 22 | 0.0 | 1.0 | 0.00 | 0.00 | 0.00 | 81 | 1012.5 |
| 20260831093107 | 52 | 22 | 0.0 | 1.0 | 0.00 | 0.00 | 0.00 | 79 | 1012.6 |
| 20260831091607 | 52 | 22 | 0.0 | 1.0 | 0.00 | 0.00 | 0.00 | 78 | 1012.7 |
| 20260831090033 | 53 | 13 | 2.0 | 4.0 | 0.00 | 0.00 | 0.00 | 77 | 1012.6 |
| 20260831084528 | 53 | 282 | 0.0 | 2.0 | 0.00 | 0.00 | 0.00 | 77 | 1012.8 |
| 20260831080030 | 53 | 270 | 0.0 | 1.0 | 0.00 | 0.00 | 0.00 | 75 | 1013.0 |
| 20260831074534 | 54 | 270 | 0.0 | 0.0 | 0.00 | 0.00 | 0.00 | 75 | 1013.0 |
| 20260831073032 | 54 | 270 | 0.0 | 0.0 | 0.00 | 0.00 | 0.00 | 74 | 1013.1 |
| 20260831070028 | 55 | 271 | 0.0 | 2.0 | 0.00 | 0.00 | 0.00 | 72 | 1013.2 |